START_TIME,STEP,MOV.,M34,t_acc.,L5,t_acc.,L18,t_acc.,L14,t_acc.
1979-03-10 15:05:34.230 ,0,0,0.,12.0,0.,12.0,0.,12.0,0.,12.0
1979-03-10 15:05:46.230 ,0,0,,0,,0,,0,,0
1979-03-10 15:05:58.230 ,0,0,,0,,0,,0,,0
1979-03-10 15:06:10.230 ,0,0,,0,,0,,0,,0
1979-03-10 15:06:22.230 ,0,0,0.,12.0,0.,12.0,0.,12.0,0.,12.0
1979-03-10 15:06:34.230 ,0,0,0.,12.0,0.,12.0,0.,12.0,0.,12.0
1979-03-10 15:06:46.230 ,6,1,0.,12.0,0.,12.0,0.,12.0,0.,12.0
1979-03-10 15:06:58.230 ,6,1,0.,12.0,0.,12.0,0.,12.0,0.,12.0
1979-03-10 15:07:10.230 ,7,1,0.,12.0,0.,12.0,0.,12.0,0.,12.0
1979-03-10 15:07:22.230 ,7,1,0.,12.0,0.,12.0,0.,12.0,0.,12.0
1979-03-10 15:07:34.230 ,7,1,,0,,0,,0,,0
1979-03-10 15:07:46.230 ,7,1,0.,12.0,0.,12.0,0.,12.0,0.,12.0
1979-03-10 15:07:58.230 ,6,1,0.,12.0,0.,12.0,0.,12.0,0.,12.0
1979-03-10 15:08:10.230 ,6,1,0.,12.0,0.,12.0,0.,12.0,0.,12.0
1979-03-10 15:08:22.230 ,5,1,0.,12.0,0.,12.0,0.,12.0,0.,12.0
1979-03-10 15:08:34.230 ,5,1,0.,12.0,0.,12.0,0.,12.0,0.,12.0
1979-03-10 15:08:46.230 ,0,0,0.,12.0,0.,12.0,0.,12.0,0.,12.0
1979-03-10 15:08:58.230 ,0,0,0.,12.0,0.,12.0,0.,12.0,0.,12.0
1979-03-10 15:09:10.230 ,0,0,,0,,0,,0,,0
1979-03-10 15:09:22.230 ,0,0,,0,,0,,0,,0
1979-03-10 15:09:34.230 ,2,1,0.,12.0,0.,12.0,0.,12.0,0.,12.0
1979-03-10 15:09:46.230 ,2,1,0.,12.0,0.,12.0,0.,12.0,0.,12.0
1979-03-10 15:09:58.230 ,0,0,0.,12.0,0.,12.0,0.,12.0,0.,12.0
1979-03-10 15:10:10.230 ,0,0,0.,12.0,0.,12.0,0.,12.0,0.,12.0
1979-03-10 15:28:40.230 ,0,0,,0,,0,,0,,0
1979-03-10 15:28:52.230 ,0,0,,0,,0,,0,,0
1979-03-10 15:28:46.230 ,2,1,0.,12.0,0.,12.0,0.,12.0,0.,12.0
1979-03-10 15:28:58.230 ,2,1,0.,12.0,0.,12.0,0.,12.0,0.,12.0
1979-03-10 15:29:10.230 ,1,1,0.,12.0,0.,12.0,0.,12.0,0.,12.0
1979-03-10 15:29:22.230 ,1,1,0.,12.0,0.,12.0,0.,12.0,0.,12.0
1979-03-10 15:29:34.230 ,0,1,0.,12.0,0.,12.0,0.,12.0,0.,12.0
1979-03-10 15:29:46.230 ,0,1,0.,12.0,0.,12.0,0.,12.0,0.,12.0
1979-03-10 15:29:58.230 ,0,1,0.,12.0,0.,12.0,0.,12.0,0.,12.0
1979-03-10 15:30:10.230 ,0,1,0.,12.0,0.,12.0,0.,12.0,0.,12.0
1979-03-10 15:30:22.230 ,1,1,0.,12.0,0.,12.0,0.,12.0,0.,12.0
1979-03-10 15:30:34.230 ,1,1,0.,12.0,0.,12.0,0.,12.0,0.,12.0
1979-03-10 15:30:46.230 ,2,1,0.,12.0,0.,12.0,0.,12.0,0.,12.0
1979-03-10 15:30:58.230 ,2,1,0.,12.0,0.,12.0,0.,12.0,0.,12.0
1979-03-10 15:31:10.230 ,3,1,0.,12.0,0.,12.0,0.,12.0,0.,12.0
1979-03-10 15:31:22.230 ,3,1,0.,12.0,0.,12.0,0.,12.0,0.,12.0
1979-03-10 15:31:34.230 ,4,1,0.,12.0,0.,12.0,0.,12.0,0.,12.0
1979-03-10 15:31:46.230 ,4,1,0.,12.0,0.,12.0,0.,12.0,0.,12.0
1979-03-10 15:31:58.230 ,5,1,0.,12.0,0.,12.0,0.,12.0,0.,12.0
1979-03-10 15:32:10.230 ,5,1,0.,12.0,0.,12.0,0.,12.0,0.,12.0
1979-03-10 15:32:22.230 ,6,1,0.,12.0,0.,12.0,0.,12.0,0.,12.0
1979-03-10 15:32:34.230 ,6,1,0.,12.0,0.,12.0,0.,12.0,0.,12.0
1979-03-10 15:32:46.230 ,7,1,0.,12.0,0.,12.0,0.,12.0,0.,12.0
1979-03-10 15:32:58.230 ,7,1,0.,12.0,0.,12.0,0.,12.0,0.,12.0
1979-03-10 15:33:10.230 ,7,1,0.,12.0,0.,12.0,0.,12.0,0.,12.0
1979-03-10 15:33:22.230 ,7,1,0.,12.0,0.,12.0,0.,12.0,0.,12.0
1979-03-10 15:33:34.230 ,6,1,0.,12.0,0.,12.0,0.,12.0,0.,12.0
1979-03-10 15:33:46.230 ,6,1,0.,12.0,0.,12.0,0.,12.0,0.,12.0
1979-03-10 15:33:58.230 ,5,1,0.,12.0,0.,12.0,0.,12.0,0.,12.0
1979-03-10 15:34:10.230 ,5,1,0.,12.0,0.,12.0,0.,12.0,0.,12.0
1979-03-10 15:34:22.230 ,4,1,0.,12.0,0.,12.0,0.,12.0,0.,12.0
1979-03-10 15:34:34.230 ,4,1,0.,12.0,0.,12.0,0.,12.0,0.,12.0
1979-03-10 15:34:46.230 ,3,1,0.,12.0,0.,12.0,0.,12.0,0.,12.0
1979-03-10 15:34:58.230 ,3,1,0.,12.0,0.,12.0,0.,12.0,0.,12.0
1979-03-10 15:35:10.230 ,2,1,0.,12.0,0.,12.0,0.,12.0,0.,12.0
1979-03-10 15:35:22.230 ,2,1,0.,12.0,0.,12.0,0.,12.0,0.,12.0
1979-03-10 15:35:34.230 ,1,1,0.,12.0,0.,12.0,0.,12.0,0.,12.0
1979-03-10 15:35:46.230 ,1,1,0.,12.0,0.,12.0,0.,12.0,0.,12.0
1979-03-10 15:35:58.230 ,0,1,0.,12.0,0.,12.0,0.,12.0,0.,12.0
1979-03-10 15:36:10.230 ,0,1,0.,12.0,0.,12.0,0.,12.0,0.,12.0
1979-03-10 15:36:22.230 ,0,1,0.,12.0,0.,12.0,0.,12.0,0.,12.0
1979-03-10 15:36:34.230 ,0,1,0.,12.0,0.,12.0,0.,12.0,0.,12.0
1979-03-10 15:36:46.230 ,1,1,0.,12.0,0.,12.0,0.,12.0,0.,12.0
1979-03-10 15:36:58.230 ,1,1,0.,12.0,0.,12.0,0.,12.0,0.,12.0
1979-03-10 15:37:10.230 ,2,1,0.,12.0,0.,12.0,0.,12.0,0.,12.0
1979-03-10 15:37:22.230 ,2,1,0.,12.0,0.,12.0,0.,12.0,0.,12.0
1979-03-10 15:37:34.230 ,3,1,0.,12.0,0.,12.0,0.,12.0,0.,12.0
1979-03-10 15:37:46.230 ,3,1,0.,12.0,0.,12.0,0.,12.0,0.,12.0
1979-03-10 15:37:58.230 ,4,1,0.,12.0,0.,12.0,0.,12.0,0.,12.0
1979-03-10 15:38:10.230 ,4,1,0.,12.0,0.,12.0,0.,12.0,0.,12.0
1979-03-10 15:38:22.230 ,5,1,0.,12.0,0.,12.0,0.,12.0,0.,12.0
1979-03-10 15:38:34.230 ,5,1,0.,12.0,0.,12.0,0.,12.0,0.,12.0
1979-03-10 15:38:46.230 ,6,1,0.,12.0,0.,12.0,0.,12.0,0.,12.0
1979-03-10 15:38:58.230 ,6,1,0.,12.0,0.,12.0,0.,12.0,0.,12.0
1979-03-10 15:39:10.230 ,7,1,0.,12.0,0.,12.0,0.,12.0,0.,12.0
1979-03-10 15:39:22.230 ,7,1,0.,12.0,0.,12.0,0.,12.0,0.,12.0
1979-03-10 15:39:34.230 ,7,1,0.,12.0,0.,12.0,0.,12.0,1.,12.0
1979-03-10 15:39:46.230 ,7,1,0.,12.0,0.,12.0,0.,12.0,0.,12.0
1979-03-10 15:39:58.230 ,6,1,0.,12.0,0.,12.0,0.,12.0,0.,12.0
1979-03-10 15:40:10.230 ,6,1,0.,12.0,0.,12.0,0.,12.0,0.,12.0
1979-03-10 15:40:22.230 ,5,1,0.,12.0,0.,12.0,0.,12.0,0.,12.0
1979-03-10 15:40:34.230 ,5,1,0.,12.0,0.,12.0,0.,12.0,0.,12.0
1979-03-10 15:40:46.230 ,4,1,0.,12.0,0.,12.0,0.,12.0,0.,12.0
1979-03-10 15:40:58.230 ,4,1,0.,12.0,0.,12.0,0.,12.0,0.,12.0
1979-03-10 15:41:10.230 ,0,0,0.,12.0,0.,12.0,0.,12.0,0.,12.0
1979-03-10 15:41:22.230 ,0,0,0.,12.0,0.,12.0,0.,12.0,0.,12.0
1979-03-10 15:42:18.030 ,0,0,,0,,0,,0,,0
1979-03-10 15:42:30.030 ,0,0,,0,,0,,0,,0
1979-03-10 15:42:22.230 ,0,1,0.,12.0,0.,12.0,0.,12.0,0.,12.0
1979-03-10 15:42:34.230 ,0,1,0.,12.0,0.,12.0,0.,12.0,0.,12.0
1979-03-10 15:42:46.230 ,0,1,0.,12.0,0.,12.0,0.,12.0,0.,12.0
1979-03-10 15:42:58.230 ,0,1,0.,12.0,0.,12.0,0.,12.0,0.,12.0
1979-03-10 15:43:10.230 ,0,0,0.,12.0,0.,12.0,0.,12.0,0.,12.0
1979-03-10 15:43:22.230 ,0,0,,0,,0,,0,,0
1979-03-10 15:43:34.230 ,0,0,,0,,0,,0,,0
1979-03-10 15:43:46.230 ,0,0,,0,,0,,0,,0
1979-03-10 15:47:00.630 ,0,0,,0,,0,,0,,0
1979-03-10 15:47:12.630 ,0,0,,0,,0,,0,,0
1979-03-10 15:47:10.230 ,4,1,0.,12.0,0.,12.0,0.,12.0,0.,12.0
1979-03-10 15:47:22.230 ,4,1,0.,12.0,0.,12.0,0.,12.0,0.,12.0
1979-03-10 15:47:34.230 ,3,1,0.,12.0,0.,12.0,0.,12.0,0.,12.0
1979-03-10 15:47:46.230 ,3,1,0.,12.0,0.,12.0,0.,12.0,0.,12.0
1979-03-10 15:47:58.230 ,2,1,0.,12.0,0.,12.0,0.,12.0,1.,12.0
1979-03-10 15:48:10.230 ,2,1,0.,12.0,0.,12.0,0.,12.0,0.,12.0
1979-03-10 15:48:22.230 ,1,1,0.,12.0,0.,12.0,0.,12.0,0.,12.0
1979-03-10 15:48:34.230 ,1,1,0.,12.0,0.,12.0,0.,12.0,0.,12.0
1979-03-10 15:48:46.230 ,0,1,0.,12.0,0.,12.0,0.,12.0,0.,12.0
1979-03-10 15:48:58.230 ,0,1,0.,12.0,0.,12.0,0.,12.0,0.,12.0
1979-03-10 15:49:10.230 ,0,1,0.,12.0,0.,12.0,0.,12.0,0.,12.0
1979-03-10 15:49:22.230 ,0,1,0.,12.0,0.,12.0,0.,12.0,0.,12.0
1979-03-10 15:49:34.230 ,1,1,0.,12.0,0.,12.0,0.,12.0,0.,12.0
1979-03-10 15:49:46.230 ,1,1,0.,12.0,0.,12.0,0.,12.0,0.,12.0
1979-03-10 15:49:58.230 ,2,1,0.,12.0,0.,12.0,0.,12.0,0.,12.0
1979-03-10 15:50:10.230 ,2,1,0.,12.0,0.,12.0,0.,12.0,0.,12.0
1979-03-10 15:50:22.230 ,3,1,0.,12.0,0.,12.0,0.,12.0,0.,12.0
1979-03-10 15:50:34.230 ,3,1,0.,12.0,0.,12.0,0.,12.0,0.,12.0
1979-03-10 15:50:46.230 ,4,1,0.,12.0,0.,12.0,0.,12.0,0.,12.0
1979-03-10 15:50:58.230 ,4,1,0.,12.0,0.,12.0,0.,12.0,0.,12.0
1979-03-10 15:51:10.230 ,5,1,0.,12.0,0.,12.0,0.,12.0,0.,12.0
1979-03-10 15:51:22.230 ,5,1,0.,12.0,0.,12.0,0.,12.0,0.,12.0
1979-03-10 15:51:34.230 ,6,1,0.,12.0,0.,12.0,0.,12.0,0.,12.0
1979-03-10 15:51:46.230 ,6,1,0.,12.0,0.,12.0,0.,12.0,0.,12.0
1979-03-10 15:51:58.230 ,7,1,0.,12.0,0.,12.0,0.,12.0,0.,12.0
1979-03-10 15:52:10.230 ,7,1,0.,12.0,0.,12.0,0.,12.0,0.,12.0
1979-03-10 15:52:22.230 ,7,1,0.,12.0,0.,12.0,0.,12.0,0.,12.0
1979-03-10 15:52:34.230 ,7,1,0.,12.0,0.,12.0,0.,12.0,0.,12.0
1979-03-10 15:52:46.230 ,6,1,0.,12.0,0.,12.0,0.,12.0,0.,12.0
1979-03-10 15:52:58.230 ,6,1,0.,12.0,0.,12.0,0.,12.0,0.,12.0
1979-03-10 15:53:10.230 ,5,1,0.,12.0,0.,12.0,0.,12.0,0.,12.0
1979-03-10 15:53:22.230 ,5,1,0.,12.0,0.,12.0,0.,12.0,0.,12.0
1979-03-10 15:53:34.230 ,4,1,0.,12.0,0.,12.0,0.,12.0,0.,12.0
1979-03-10 15:53:46.230 ,4,1,0.,12.0,0.,12.0,0.,12.0,0.,12.0
1979-03-10 15:53:58.230 ,3,1,0.,12.0,0.,12.0,0.,12.0,0.,12.0
1979-03-10 15:54:10.230 ,3,1,0.,12.0,0.,12.0,0.,12.0,0.,12.0
1979-03-10 15:54:22.230 ,2,1,0.,12.0,0.,12.0,0.,12.0,0.,12.0
1979-03-10 15:54:34.230 ,2,1,0.,12.0,0.,12.0,0.,12.0,0.,12.0
1979-03-10 15:54:46.230 ,1,1,0.,12.0,0.,12.0,0.,12.0,0.,12.0
1979-03-10 15:54:58.230 ,1,1,0.,12.0,0.,12.0,0.,12.0,0.,12.0
1979-03-10 15:55:10.230 ,0,1,0.,12.0,0.,12.0,0.,12.0,0.,12.0
1979-03-10 15:55:22.230 ,0,1,0.,12.0,0.,12.0,0.,12.0,0.,12.0
1979-03-10 15:55:34.230 ,0,1,0.,12.0,0.,12.0,0.,12.0,0.,12.0
1979-03-10 15:55:46.230 ,0,1,0.,12.0,0.,12.0,0.,12.0,0.,12.0
1979-03-10 15:55:58.230 ,1,1,0.,12.0,0.,12.0,0.,12.0,0.,12.0
1979-03-10 15:56:10.230 ,1,1,0.,12.0,0.,12.0,0.,12.0,0.,12.0
1979-03-10 15:56:22.230 ,2,1,0.,12.0,0.,12.0,0.,12.0,0.,12.0
1979-03-10 15:56:34.230 ,2,1,0.,12.0,0.,12.0,0.,12.0,0.,12.0
1979-03-10 15:56:46.230 ,3,1,0.,12.0,0.,12.0,0.,12.0,0.,12.0
1979-03-10 15:56:58.230 ,3,1,0.,12.0,0.,12.0,0.,12.0,0.,12.0
1979-03-10 15:57:10.230 ,4,1,0.,12.0,0.,12.0,0.,12.0,0.,12.0
1979-03-10 15:57:22.230 ,4,1,0.,12.0,0.,12.0,0.,12.0,0.,12.0
1979-03-10 15:57:34.230 ,5,1,0.,12.0,0.,12.0,0.,12.0,0.,12.0
1979-03-10 15:57:46.230 ,5,1,0.,12.0,0.,12.0,0.,12.0,0.,12.0
1979-03-10 15:57:58.230 ,6,1,0.,12.0,0.,12.0,0.,12.0,0.,12.0
1979-03-10 15:58:10.230 ,6,1,0.,12.0,0.,12.0,0.,12.0,0.,12.0
1979-03-10 15:58:22.230 ,7,1,0.,12.0,0.,12.0,0.,12.0,0.,12.0
1979-03-10 15:58:34.230 ,7,1,0.,12.0,0.,12.0,0.,12.0,0.,12.0
1979-03-10 15:58:46.230 ,7,1,0.,12.0,0.,12.0,0.,12.0,0.,12.0
1979-03-10 15:58:58.230 ,7,1,0.,12.0,0.,12.0,0.,12.0,0.,12.0
1979-03-10 15:59:10.230 ,6,1,0.,12.0,0.,12.0,0.,12.0,0.,12.0
1979-03-10 15:59:22.230 ,6,1,0.,12.0,0.,12.0,0.,12.0,0.,12.0
1979-03-10 15:59:34.230 ,5,1,0.,12.0,0.,12.0,0.,12.0,0.,12.0
1979-03-10 15:59:46.230 ,5,1,0.,12.0,0.,12.0,0.,12.0,0.,12.0
1979-03-10 15:59:58.230 ,4,1,0.,12.0,0.,12.0,0.,12.0,0.,12.0
1979-03-10 16:00:10.230 ,4,1,0.,12.0,0.,12.0,0.,12.0,0.,12.0
1979-03-10 16:00:22.230 ,3,1,0.,12.0,0.,12.0,0.,12.0,0.,12.0
1979-03-10 16:00:34.230 ,3,1,0.,12.0,0.,12.0,0.,12.0,0.,12.0
1979-03-10 16:00:46.230 ,2,1,0.,12.0,0.,12.0,0.,12.0,0.,12.0
1979-03-10 16:00:58.230 ,2,1,0.,12.0,0.,12.0,0.,12.0,0.,12.0
1979-03-10 16:01:10.230 ,1,1,0.,12.0,0.,12.0,0.,12.0,0.,12.0
1979-03-10 16:01:22.230 ,1,1,0.,12.0,0.,12.0,0.,12.0,0.,12.0
1979-03-10 16:01:34.230 ,0,1,0.,12.0,0.,12.0,0.,12.0,0.,12.0
1979-03-10 16:01:46.230 ,0,1,0.,12.0,0.,12.0,0.,12.0,0.,12.0
1979-03-10 16:01:58.230 ,0,1,0.,12.0,0.,12.0,0.,12.0,0.,12.0
1979-03-10 16:02:10.230 ,0,1,0.,12.0,0.,12.0,0.,12.0,0.,12.0
1979-03-10 16:02:22.230 ,1,1,0.,12.0,0.,12.0,0.,12.0,0.,12.0
1979-03-10 16:02:34.230 ,1,1,0.,12.0,0.,12.0,0.,12.0,0.,12.0
1979-03-10 16:02:46.230 ,2,1,0.,12.0,0.,12.0,0.,12.0,0.,12.0
1979-03-10 16:02:58.230 ,2,1,0.,12.0,0.,12.0,0.,12.0,0.,12.0
1979-03-10 16:03:10.230 ,3,1,0.,12.0,0.,12.0,0.,12.0,0.,12.0
1979-03-10 16:03:22.230 ,3,1,0.,12.0,0.,12.0,0.,12.0,0.,12.0
1979-03-10 16:03:34.230 ,4,1,0.,12.0,0.,12.0,0.,12.0,0.,12.0
1979-03-10 16:03:46.230 ,4,1,0.,12.0,0.,12.0,0.,12.0,0.,12.0
1979-03-10 16:03:58.230 ,5,1,0.,12.0,0.,12.0,0.,12.0,0.,12.0
1979-03-10 16:04:10.230 ,5,1,0.,12.0,0.,12.0,0.,12.0,0.,12.0
1979-03-10 16:04:22.230 ,6,1,0.,12.0,0.,12.0,0.,12.0,0.,12.0
1979-03-10 16:04:34.230 ,6,1,0.,12.0,0.,12.0,0.,12.0,0.,12.0
1979-03-10 16:04:46.230 ,7,1,0.,12.0,0.,12.0,0.,12.0,0.,12.0
1979-03-10 16:04:58.230 ,7,1,0.,12.0,0.,12.0,0.,12.0,0.,12.0
1979-03-10 16:05:10.230 ,7,1,0.,12.0,0.,12.0,0.,12.0,0.,12.0
1979-03-10 16:05:22.230 ,7,1,0.,12.0,0.,12.0,0.,12.0,0.,12.0
1979-03-10 16:05:34.230 ,6,1,0.,12.0,0.,12.0,0.,12.0,0.,12.0
1979-03-10 16:05:46.230 ,6,1,0.,12.0,0.,12.0,0.,12.0,0.,12.0
1979-03-10 16:05:58.230 ,5,1,0.,12.0,0.,12.0,0.,12.0,0.,12.0
1979-03-10 16:06:10.230 ,5,1,0.,12.0,0.,12.0,0.,12.0,0.,12.0
1979-03-10 16:06:22.230 ,4,1,0.,12.0,0.,12.0,0.,12.0,0.,12.0
1979-03-10 16:06:34.230 ,4,1,0.,12.0,0.,12.0,0.,12.0,0.,12.0
1979-03-10 16:06:46.230 ,3,1,0.,12.0,0.,12.0,0.,12.0,0.,12.0
1979-03-10 16:06:58.230 ,3,1,0.,12.0,0.,12.0,0.,12.0,0.,12.0
1979-03-10 16:07:10.230 ,2,1,0.,12.0,0.,12.0,0.,12.0,0.,12.0
1979-03-10 16:07:22.230 ,2,1,0.,12.0,0.,12.0,0.,12.0,0.,12.0
1979-03-10 16:07:34.230 ,1,1,0.,12.0,0.,12.0,0.,12.0,0.,12.0
1979-03-10 16:07:46.230 ,1,1,0.,12.0,0.,12.0,0.,12.0,0.,12.0
1979-03-10 16:07:58.230 ,0,1,0.,12.0,0.,12.0,0.,12.0,0.,12.0
1979-03-10 16:08:10.230 ,0,1,0.,12.0,0.,12.0,0.,12.0,0.,12.0
1979-03-10 16:08:22.230 ,0,1,0.,12.0,0.,12.0,0.,12.0,0.,12.0
1979-03-10 16:08:34.230 ,0,1,0.,12.0,0.,12.0,0.,12.0,0.,12.0
1979-03-10 16:08:46.230 ,1,1,0.,12.0,0.,12.0,0.,12.0,0.,12.0
1979-03-10 16:08:58.230 ,1,1,0.,12.0,0.,12.0,0.,12.0,0.,12.0
1979-03-10 16:09:10.230 ,2,1,0.,12.0,0.,12.0,0.,12.0,0.,12.0
1979-03-10 16:09:22.230 ,2,1,0.,12.0,0.,12.0,0.,12.0,0.,12.0
1979-03-10 16:09:34.230 ,3,1,0.,12.0,0.,12.0,0.,12.0,0.,12.0
1979-03-10 16:09:46.230 ,3,1,0.,12.0,0.,12.0,0.,12.0,0.,12.0
1979-03-10 16:09:58.230 ,4,1,0.,12.0,0.,12.0,0.,12.0,0.,12.0
1979-03-10 16:10:10.230 ,4,1,0.,12.0,0.,12.0,0.,12.0,0.,12.0
1979-03-10 16:10:22.230 ,5,1,0.,12.0,0.,12.0,0.,12.0,0.,12.0
1979-03-10 16:10:34.230 ,5,1,0.,12.0,0.,12.0,0.,12.0,0.,12.0
1979-03-10 16:10:46.230 ,6,1,0.,12.0,0.,12.0,0.,12.0,0.,12.0
1979-03-10 16:10:58.230 ,6,1,0.,12.0,0.,12.0,0.,12.0,0.,12.0
1979-03-10 16:11:10.230 ,7,1,0.,12.0,0.,12.0,0.,12.0,0.,12.0
1979-03-10 16:11:22.230 ,7,1,0.,12.0,0.,12.0,0.,12.0,0.,12.0
1979-03-10 16:11:34.230 ,7,1,0.,12.0,0.,12.0,0.,12.0,0.,12.0
1979-03-10 16:11:46.230 ,7,1,0.,12.0,0.,12.0,0.,12.0,0.,12.0
1979-03-10 16:11:58.230 ,6,1,0.,12.0,0.,12.0,0.,12.0,0.,12.0
1979-03-10 16:12:10.230 ,6,1,0.,12.0,0.,12.0,0.,12.0,0.,12.0
1979-03-10 16:12:22.230 ,5,1,0.,12.0,0.,12.0,0.,12.0,0.,12.0
1979-03-10 16:12:34.230 ,5,1,0.,12.0,0.,12.0,0.,12.0,0.,12.0
1979-03-10 16:12:46.230 ,4,1,0.,12.0,0.,12.0,0.,12.0,0.,12.0
1979-03-10 16:12:58.230 ,4,1,0.,12.0,0.,12.0,0.,12.0,0.,12.0
1979-03-10 16:13:10.230 ,3,1,0.,12.0,0.,12.0,0.,12.0,0.,12.0
1979-03-10 16:13:22.230 ,3,1,0.,12.0,0.,12.0,0.,12.0,0.,12.0
1979-03-10 16:13:34.230 ,2,1,0.,12.0,0.,12.0,0.,12.0,0.,12.0
1979-03-10 16:13:46.230 ,2,1,0.,12.0,0.,12.0,0.,12.0,0.,12.0
1979-03-10 16:13:58.230 ,1,1,0.,12.0,0.,12.0,0.,12.0,0.,12.0
1979-03-10 16:14:10.230 ,1,1,0.,12.0,0.,12.0,0.,12.0,0.,12.0
1979-03-10 16:14:22.230 ,0,1,0.,12.0,0.,12.0,0.,12.0,0.,12.0
1979-03-10 16:14:34.230 ,0,1,0.,12.0,0.,12.0,0.,12.0,0.,12.0
1979-03-10 16:14:46.230 ,0,1,0.,12.0,0.,12.0,0.,12.0,0.,12.0
1979-03-10 16:14:58.230 ,0,1,0.,12.0,0.,12.0,0.,12.0,0.,12.0
1979-03-10 16:15:10.230 ,1,1,0.,12.0,0.,12.0,0.,12.0,0.,12.0
1979-03-10 16:15:22.230 ,1,1,0.,12.0,0.,12.0,0.,12.0,0.,12.0
1979-03-10 16:15:34.230 ,2,1,0.,12.0,0.,12.0,0.,12.0,0.,12.0
1979-03-10 16:15:46.230 ,2,1,0.,12.0,0.,12.0,0.,12.0,0.,12.0
1979-03-10 16:15:58.230 ,3,1,0.,12.0,0.,12.0,0.,12.0,0.,12.0
1979-03-10 16:16:10.230 ,3,1,0.,12.0,0.,12.0,0.,12.0,0.,12.0
1979-03-10 16:16:22.230 ,4,1,0.,12.0,0.,12.0,0.,12.0,0.,12.0
1979-03-10 16:16:34.230 ,4,1,0.,12.0,0.,12.0,0.,12.0,0.,12.0
1979-03-10 16:16:46.230 ,5,1,0.,12.0,0.,12.0,0.,12.0,0.,12.0
1979-03-10 16:16:58.230 ,5,1,0.,12.0,0.,12.0,0.,12.0,0.,12.0
1979-03-10 16:17:10.230 ,6,1,0.,12.0,0.,12.0,0.,12.0,0.,12.0
1979-03-10 16:17:22.230 ,6,1,0.,12.0,0.,12.0,0.,12.0,0.,12.0
1979-03-10 16:17:34.230 ,7,1,0.,12.0,0.,12.0,0.,12.0,0.,12.0
1979-03-10 16:17:46.230 ,7,1,0.,12.0,0.,12.0,0.,12.0,0.,12.0
1979-03-10 16:17:58.230 ,7,1,0.,12.0,0.,12.0,0.,12.0,0.,12.0
1979-03-10 16:18:10.230 ,7,1,0.,12.0,0.,12.0,0.,12.0,0.,12.0
1979-03-10 16:18:22.230 ,6,1,0.,12.0,0.,12.0,0.,12.0,0.,12.0
1979-03-10 16:18:34.230 ,6,1,0.,12.0,0.,12.0,0.,12.0,0.,12.0
1979-03-10 16:18:46.230 ,5,1,0.,12.0,0.,12.0,0.,12.0,0.,12.0
1979-03-10 16:18:58.230 ,5,1,0.,12.0,0.,12.0,0.,12.0,0.,12.0
1979-03-10 16:19:10.230 ,4,1,0.,12.0,0.,12.0,0.,12.0,0.,12.0
1979-03-10 16:19:22.230 ,4,1,0.,12.0,0.,12.0,0.,12.0,0.,12.0
1979-03-10 16:19:34.230 ,3,1,0.,12.0,0.,12.0,0.,12.0,0.,12.0
1979-03-10 16:19:46.230 ,3,1,0.,12.0,0.,12.0,0.,12.0,0.,12.0
1979-03-10 16:19:58.230 ,2,1,0.,12.0,0.,12.0,0.,12.0,0.,12.0
1979-03-10 16:20:10.230 ,2,1,0.,12.0,0.,12.0,0.,12.0,0.,12.0
1979-03-10 16:20:22.230 ,1,1,0.,12.0,0.,12.0,0.,12.0,0.,12.0
1979-03-10 16:20:34.230 ,1,1,0.,12.0,0.,12.0,0.,12.0,0.,12.0
1979-03-10 16:20:46.230 ,0,1,0.,12.0,0.,12.0,0.,12.0,0.,12.0
1979-03-10 16:20:58.230 ,0,1,0.,12.0,0.,12.0,0.,12.0,0.,12.0
1979-03-10 16:21:10.230 ,0,1,0.,12.0,0.,12.0,0.,12.0,0.,12.0
1979-03-10 16:21:22.230 ,0,1,0.,12.0,0.,12.0,0.,12.0,0.,12.0
1979-03-10 16:21:34.230 ,1,1,0.,12.0,0.,12.0,0.,12.0,0.,12.0
1979-03-10 16:21:46.230 ,1,1,0.,12.0,0.,12.0,0.,12.0,0.,12.0
1979-03-10 16:21:58.230 ,2,1,0.,12.0,0.,12.0,0.,12.0,0.,12.0
1979-03-10 16:22:10.230 ,2,1,0.,12.0,0.,12.0,0.,12.0,0.,12.0
1979-03-10 16:22:22.230 ,3,1,0.,12.0,0.,12.0,0.,12.0,0.,12.0
1979-03-10 16:22:34.230 ,3,1,0.,12.0,0.,12.0,0.,12.0,0.,12.0
1979-03-10 16:22:46.230 ,4,1,0.,12.0,0.,12.0,0.,12.0,0.,12.0
1979-03-10 16:22:58.230 ,4,1,0.,12.0,0.,12.0,0.,12.0,0.,12.0
1979-03-10 16:23:10.230 ,5,1,0.,12.0,0.,12.0,0.,12.0,0.,12.0
1979-03-10 16:23:22.230 ,5,1,0.,12.0,0.,12.0,0.,12.0,0.,12.0
1979-03-10 16:23:34.230 ,6,1,0.,12.0,0.,12.0,0.,12.0,0.,12.0
1979-03-10 16:23:46.230 ,6,1,0.,12.0,0.,12.0,0.,12.0,0.,12.0
1979-03-10 16:23:58.230 ,7,1,0.,12.0,0.,12.0,0.,12.0,0.,12.0
1979-03-10 16:24:10.230 ,7,1,0.,12.0,0.,12.0,0.,12.0,0.,12.0
1979-03-10 16:24:22.230 ,7,1,0.,12.0,0.,12.0,0.,12.0,0.,12.0
1979-03-10 16:24:34.230 ,7,1,0.,12.0,0.,12.0,0.,12.0,0.,12.0
1979-03-10 16:24:46.230 ,6,1,0.,12.0,0.,12.0,0.,12.0,0.,12.0
1979-03-10 16:24:58.230 ,6,1,0.,12.0,0.,12.0,0.,12.0,0.,12.0
1979-03-10 16:25:10.230 ,5,1,0.,12.0,0.,12.0,0.,12.0,0.,12.0
1979-03-10 16:25:22.230 ,5,1,0.,12.0,0.,12.0,0.,12.0,0.,12.0
1979-03-10 16:25:34.230 ,4,1,0.,12.0,0.,12.0,0.,12.0,0.,12.0
1979-03-10 16:25:46.230 ,4,1,0.,12.0,0.,12.0,0.,12.0,0.,12.0
1979-03-10 16:25:58.230 ,3,1,0.,12.0,0.,12.0,0.,12.0,0.,12.0
1979-03-10 16:26:10.230 ,3,1,0.,12.0,0.,12.0,0.,12.0,0.,12.0
1979-03-10 16:26:22.230 ,2,1,0.,12.0,0.,12.0,0.,12.0,0.,12.0
1979-03-10 16:26:34.230 ,2,1,0.,12.0,0.,12.0,0.,12.0,0.,12.0
1979-03-10 16:26:46.230 ,1,1,0.,12.0,0.,12.0,0.,12.0,0.,12.0
1979-03-10 16:26:58.230 ,1,1,0.,12.0,0.,12.0,0.,12.0,0.,12.0
1979-03-10 16:27:10.230 ,0,1,0.,12.0,0.,12.0,0.,12.0,0.,12.0
1979-03-10 16:27:22.230 ,0,1,0.,12.0,0.,12.0,0.,12.0,0.,12.0
1979-03-10 16:27:34.230 ,0,1,0.,12.0,0.,12.0,0.,12.0,0.,12.0
1979-03-10 16:27:46.230 ,0,1,0.,12.0,0.,12.0,0.,12.0,0.,12.0
1979-03-10 16:27:58.230 ,1,1,0.,12.0,0.,12.0,0.,12.0,0.,12.0
1979-03-10 16:28:10.230 ,1,1,0.,12.0,0.,12.0,0.,12.0,0.,12.0
1979-03-10 16:28:22.230 ,2,1,0.,12.0,0.,12.0,0.,12.0,0.,12.0
1979-03-10 16:28:34.230 ,2,1,0.,12.0,0.,12.0,0.,12.0,0.,12.0
1979-03-10 16:28:46.230 ,3,1,0.,12.0,0.,12.0,0.,12.0,0.,12.0
1979-03-10 16:28:58.230 ,3,1,0.,12.0,0.,12.0,0.,12.0,0.,12.0
1979-03-10 16:29:10.230 ,4,1,0.,12.0,0.,12.0,0.,12.0,0.,12.0
1979-03-10 16:29:22.230 ,4,1,0.,12.0,0.,12.0,0.,12.0,0.,12.0
1979-03-10 16:29:34.230 ,5,1,0.,12.0,0.,12.0,0.,12.0,0.,12.0
1979-03-10 16:29:46.230 ,5,1,0.,12.0,0.,12.0,0.,12.0,0.,12.0
1979-03-10 16:29:58.230 ,6,1,0.,12.0,0.,12.0,0.,12.0,0.,12.0
1979-03-10 16:30:10.230 ,6,1,0.,12.0,0.,12.0,0.,12.0,0.,12.0
1979-03-10 16:30:22.230 ,7,1,0.,12.0,0.,12.0,0.,12.0,0.,12.0
1979-03-10 16:30:34.230 ,7,1,0.,12.0,0.,12.0,0.,12.0,0.,12.0
1979-03-10 16:30:46.230 ,7,1,0.,12.0,0.,12.0,0.,12.0,0.,12.0
1979-03-10 16:30:58.230 ,7,1,0.,12.0,0.,12.0,0.,12.0,0.,12.0
1979-03-10 16:31:10.230 ,6,1,0.,12.0,0.,12.0,0.,12.0,0.,12.0
1979-03-10 16:31:22.230 ,6,1,0.,12.0,0.,12.0,0.,12.0,0.,12.0
1979-03-10 16:31:34.230 ,5,1,0.,12.0,0.,12.0,0.,12.0,0.,12.0
1979-03-10 16:31:46.230 ,5,1,0.,12.0,0.,12.0,0.,12.0,0.,12.0
1979-03-10 16:31:58.230 ,4,1,0.,12.0,0.,12.0,0.,12.0,0.,12.0
1979-03-10 16:32:10.230 ,4,1,0.,12.0,0.,12.0,0.,12.0,0.,12.0
1979-03-10 16:32:22.230 ,3,1,0.,12.0,0.,12.0,0.,12.0,0.,12.0
1979-03-10 16:32:34.230 ,3,1,0.,12.0,0.,12.0,0.,12.0,0.,12.0
1979-03-10 16:32:46.230 ,2,1,0.,12.0,0.,12.0,0.,12.0,0.,12.0
1979-03-10 16:32:58.230 ,2,1,0.,12.0,0.,12.0,0.,12.0,0.,12.0
1979-03-10 16:33:10.230 ,1,1,0.,12.0,0.,12.0,0.,12.0,0.,12.0
1979-03-10 16:33:22.230 ,1,1,0.,12.0,0.,12.0,0.,12.0,0.,12.0
1979-03-10 16:33:34.230 ,0,1,0.,12.0,0.,12.0,0.,12.0,0.,12.0
1979-03-10 16:33:46.230 ,0,1,0.,12.0,0.,12.0,0.,12.0,0.,12.0
1979-03-10 16:33:58.230 ,0,1,0.,12.0,0.,12.0,0.,12.0,0.,12.0
1979-03-10 16:34:10.230 ,0,1,0.,12.0,0.,12.0,0.,12.0,0.,12.0
1979-03-10 16:34:22.230 ,1,1,,0,,0,,0,,0
1979-03-10 16:34:34.230 ,1,1,0.,12.0,0.,12.0,0.,12.0,0.,12.0
1979-03-10 16:34:46.230 ,2,1,0.,12.0,0.,12.0,0.,12.0,0.,12.0
1979-03-10 16:34:58.230 ,2,1,0.,12.0,0.,12.0,0.,12.0,0.,12.0
1979-03-10 16:35:10.230 ,3,1,0.,12.0,0.,12.0,0.,12.0,0.,12.0
1979-03-10 16:35:22.230 ,3,1,0.,12.0,0.,12.0,0.,12.0,0.,12.0
1979-03-10 16:35:34.230 ,4,1,0.,12.0,0.,12.0,0.,12.0,0.,12.0
1979-03-10 16:35:46.230 ,4,1,0.,12.0,0.,12.0,0.,12.0,0.,12.0
1979-03-10 16:35:58.230 ,5,1,0.,12.0,0.,12.0,0.,12.0,0.,12.0
1979-03-10 16:36:10.230 ,5,1,0.,12.0,0.,12.0,0.,12.0,0.,12.0
1979-03-10 16:36:22.230 ,6,1,0.,12.0,0.,12.0,0.,12.0,0.,12.0
1979-03-10 16:36:34.230 ,6,1,0.,12.0,0.,12.0,0.,12.0,0.,12.0
1979-03-10 16:36:46.230 ,7,1,0.,12.0,0.,12.0,0.,12.0,0.,12.0
1979-03-10 16:36:58.230 ,7,1,0.,12.0,0.,12.0,0.,12.0,0.,12.0
1979-03-10 16:37:10.230 ,7,1,0.,12.0,0.,12.0,0.,12.0,0.,12.0
1979-03-10 16:37:22.230 ,7,1,0.,12.0,0.,12.0,0.,12.0,0.,12.0
1979-03-10 16:37:34.230 ,6,1,0.,12.0,0.,12.0,0.,12.0,0.,12.0
1979-03-10 16:37:46.230 ,6,1,0.,12.0,0.,12.0,0.,12.0,0.,12.0
1979-03-10 16:37:58.230 ,5,1,0.,12.0,0.,12.0,0.,12.0,0.,12.0
1979-03-10 16:38:10.230 ,5,1,0.,12.0,0.,12.0,0.,12.0,0.,12.0
1979-03-10 16:38:22.230 ,4,1,0.,12.0,0.,12.0,0.,12.0,0.,12.0
1979-03-10 16:38:34.230 ,4,1,0.,12.0,0.,12.0,0.,12.0,0.,12.0
1979-03-10 16:38:46.230 ,3,1,0.,12.0,0.,12.0,0.,12.0,0.,12.0
1979-03-10 16:38:58.230 ,3,1,0.,12.0,0.,12.0,0.,12.0,1.,12.0
1979-03-10 16:39:10.230 ,2,1,0.,12.0,0.,12.0,0.,12.0,0.,12.0
1979-03-10 16:39:22.230 ,2,1,0.,12.0,0.,12.0,0.,12.0,0.,12.0
1979-03-10 16:39:34.230 ,1,1,0.,12.0,0.,12.0,0.,12.0,0.,12.0
1979-03-10 16:39:46.230 ,1,1,0.,12.0,0.,12.0,0.,12.0,0.,12.0
1979-03-10 16:39:58.230 ,0,1,0.,12.0,0.,12.0,0.,12.0,0.,12.0
1979-03-10 16:40:10.230 ,0,1,0.,12.0,0.,12.0,0.,12.0,0.,12.0
1979-03-10 16:40:22.230 ,0,1,0.,12.0,0.,12.0,0.,12.0,0.,12.0
1979-03-10 16:40:34.230 ,0,1,0.,12.0,0.,12.0,0.,12.0,0.,12.0
1979-03-10 16:40:46.230 ,1,1,0.,12.0,0.,12.0,0.,12.0,0.,12.0
1979-03-10 16:40:58.230 ,1,1,0.,12.0,0.,12.0,0.,12.0,0.,12.0
1979-03-10 16:41:10.230 ,2,1,0.,12.0,0.,12.0,0.,12.0,0.,12.0
1979-03-10 16:41:22.230 ,2,1,0.,12.0,0.,12.0,0.,12.0,0.,12.0
1979-03-10 16:41:34.230 ,3,1,0.,12.0,0.,12.0,0.,12.0,0.,12.0
1979-03-10 16:41:46.230 ,3,1,0.,12.0,0.,12.0,0.,12.0,0.,12.0
1979-03-10 16:41:58.230 ,4,1,0.,12.0,0.,12.0,0.,12.0,0.,12.0
1979-03-10 16:42:10.230 ,4,1,0.,12.0,0.,12.0,0.,12.0,0.,12.0
1979-03-10 16:42:22.230 ,5,1,0.,12.0,0.,12.0,0.,12.0,0.,12.0
1979-03-10 16:42:34.230 ,5,1,0.,12.0,0.,12.0,0.,12.0,0.,12.0
1979-03-10 16:42:46.230 ,6,1,0.,12.0,0.,12.0,0.,12.0,0.,12.0
1979-03-10 16:42:58.230 ,6,1,0.,12.0,0.,12.0,0.,12.0,0.,12.0
1979-03-10 16:43:10.230 ,7,1,0.,12.0,0.,12.0,0.,12.0,0.,12.0
1979-03-10 16:43:22.230 ,7,1,0.,12.0,0.,12.0,0.,12.0,0.,12.0
1979-03-10 16:43:34.230 ,7,1,0.,12.0,0.,12.0,0.,12.0,0.,12.0
1979-03-10 16:43:46.230 ,7,1,0.,12.0,0.,12.0,0.,12.0,0.,12.0
1979-03-10 16:43:58.230 ,6,1,0.,12.0,0.,12.0,0.,12.0,0.,12.0
1979-03-10 16:44:10.230 ,6,1,0.,12.0,0.,12.0,0.,12.0,0.,12.0
1979-03-10 16:44:22.230 ,5,1,0.,12.0,0.,12.0,0.,12.0,0.,12.0
1979-03-10 16:44:34.230 ,5,1,0.,12.0,0.,12.0,0.,12.0,0.,12.0
1979-03-10 16:44:46.230 ,4,1,0.,12.0,0.,12.0,0.,12.0,0.,12.0